M I D A S
Marine Information and Data Acquisition System
Tripno 1766 of the Zeeleeuw from 2009-08-07 08:07:37 to 2009-08-07 14:16:39
Back to CruiseResearch ActivitiesStationsMapUnderway DataData graphs

EquipmentUnitsComments
TimeDGPSUTC
LatitudeDGPSDM.mWGS84
LongitudeDGPSDM.mWGS84
SpeedMeteo Stationm/sRelative wind speed
DirectionMeteo StationdegRelative wind direction
TemperatureMeteo Stationdeg CelciusAir temperature
PressureMeteo StationPaAtmospheric pressure
HumidityMeteo Station%Relative humidity
Missing or incorrect values are displayed as -999
Metereological data collected by the RV Zeeleeuw from 2009-08-07 08:09:01 to 2009-08-07 14:30:30
Time Latitude Longitude Speed Direction Temperature Pressure Humidity
2009-08-07 08:11 51°13.69 2°55.85 -999 -999 -999 -999 -999
2009-08-07 08:13 51°13.718 2°55.745 -999 -999 -999 -999 -999
2009-08-07 08:15 51°13.717 2°55.739 -999 -999 -999 -999 -999
2009-08-07 08:17 51°13.806 2°55.66 -999 -999 -999 -999 -999
2009-08-07 08:19 51°13.973 2°55.527 -999 -999 -999 -999 -999
2009-08-07 08:21 51°14.16 2°55.381 -999 -999 -999 -999 -999
2009-08-07 08:23 51°14.362 2°55.045 -999 -999 -999 -999 -999
2009-08-07 08:25 51°14.616 2°54.629 -999 -999 -999 -999 -999
2009-08-07 08:27 51°14.921 2°54.302 -999 -999 -999 -999 -999
2009-08-07 08:29 51°15.227 2°53.988 -999 -999 -999 -999 -999
2009-08-07 08:31 51°15.53 2°53.665 -999 -999 -999 -999 -999
2009-08-07 08:33 51°15.849 2°53.387 -999 -999 -999 -999 -999
2009-08-07 08:35 51°16.171 2°53.126 -999 -999 -999 -999 -999
2009-08-07 08:37 51°16.499 2°52.891 -999 -999 -999 -999 -999
2009-08-07 08:39 51°16.827 2°52.663 -999 -999 -999 -999 -999
2009-08-07 08:41 51°17.157 2°52.49 -999 -999 -999 -999 -999
2009-08-07 08:43 51°17.491 2°52.333 -999 -999 -999 -999 -999
2009-08-07 08:45 51°17.825 2°52.337 -999 -999 -999 -999 -999
2009-08-07 08:47 51°18.132 2°52.503 -999 -999 -999 -999 -999
2009-08-07 08:49 51°18.422 2°52.743 -999 -999 -999 -999 -999
2009-08-07 08:51 51°18.716 2°52.965 -999 -999 -999 -999 -999
2009-08-07 08:53 51°19.01 2°53.181 -999 -999 -999 -999 -999
2009-08-07 08:55 51°19.306 2°53.394 -999 -999 -999 -999 -999
2009-08-07 08:57 51°19.604 2°53.615 -999 -999 -999 -999 -999
2009-08-07 08:59 51°19.905 2°53.836 -999 -999 -999 -999 -999
2009-08-07 09:01 51°20.205 2°54.056 -999 -999 -999 -999 -999
2009-08-07 09:03 51°20.503 2°54.268 -999 -999 -999 -999 -999
2009-08-07 09:05 51°20.801 2°54.478 -999 -999 -999 -999 -999
2009-08-07 09:07 51°21.098 2°54.679 -999 -999 -999 -999 -999
2009-08-07 09:09 51°21.395 2°54.879 -999 -999 -999 -999 -999
2009-08-07 09:11 51°21.69 2°55.077 -999 -999 -999 -999 -999
2009-08-07 09:13 51°21.988 2°55.279 -999 -999 -999 -999 -999
2009-08-07 09:15 51°22.27 2°55.525 -999 -999 -999 -999 -999
2009-08-07 09:17 51°22.553 2°55.775 -999 -999 -999 -999 -999
2009-08-07 09:19 51°22.834 2°56.031 -999 -999 -999 -999 -999
2009-08-07 09:21 51°23.139 2°56.239 -999 -999 -999 -999 -999
2009-08-07 09:23 51°23.445 2°56.451 -999 -999 -999 -999 -999
2009-08-07 09:25 51°23.75 2°56.672 -999 -999 -999 -999 -999
2009-08-07 09:27 51°24.048 2°56.887 -999 -999 -999 -999 -999
2009-08-07 09:29 51°24.344 2°57.098 -999 -999 -999 -999 -999
2009-08-07 09:31 51°24.638 2°57.301 -999 -999 -999 -999 -999
2009-08-07 09:33 51°24.933 2°57.499 -999 -999 -999 -999 -999
2009-08-07 09:35 51°25.229 2°57.702 -999 -999 -999 -999 -999
2009-08-07 09:37 51°25.526 2°57.903 -999 -999 -999 -999 -999
2009-08-07 09:39 51°25.824 2°58.112 -999 -999 -999 -999 -999
2009-08-07 09:41 51°26.121 2°58.323 -999 -999 -999 -999 -999
2009-08-07 09:43 51°26.417 2°58.54 -999 -999 -999 -999 -999
2009-08-07 09:45 51°26.699 2°58.798 -999 -999 -999 -999 -999
2009-08-07 09:47 51°26.939 2°59.118 -999 -999 -999 -999 -999
2009-08-07 09:49 51°27.093 2°59.433 -999 -999 -999 -999 -999
2009-08-07 09:51 51°27.118 2°59.528 -999 -999 -999 -999 -999
2009-08-07 09:53 51°27.136 2°59.611 -999 -999 -999 -999 -999
2009-08-07 09:55 51°27.156 2°59.704 -999 -999 -999 -999 -999
2009-08-07 09:57 51°27.129 2°59.706 -999 -999 -999 -999 -999
2009-08-07 09:59 51°27.081 2°59.676 -999 -999 -999 -999 -999
2009-08-07 10:01 51°27.031 2°59.644 -999 -999 -999 -999 -999
2009-08-07 10:03 51°27.068 2°59.67 -999 -999 -999 -999 -999
2009-08-07 10:05 51°27.098 2°59.691 -999 -999 -999 -999 -999
2009-08-07 10:07 51°27.078 2°59.677 -999 -999 -999 -999 -999
2009-08-07 10:09 51°27.038 2°59.651 -999 -999 -999 -999 -999
2009-08-07 10:11 51°27.024 2°59.643 -999 -999 -999 -999 -999
2009-08-07 10:13 51°27.056 2°59.668 -999 -999 -999 -999 -999
2009-08-07 10:15 51°27.123 2°59.706 -999 -999 -999 -999 -999
2009-08-07 10:17 51°27.152 2°59.706 -999 -999 -999 -999 -999
2009-08-07 10:19 51°27.114 2°59.681 -999 -999 -999 -999 -999
2009-08-07 10:21 51°27.072 2°59.669 -999 -999 -999 -999 -999
2009-08-07 10:23 51°27.108 2°59.697 -999 -999 -999 -999 -999
2009-08-07 10:25 51°27.161 2°59.725 -999 -999 -999 -999 -999
2009-08-07 10:27 51°27.149 2°59.711 -999 -999 -999 -999 -999
2009-08-07 10:29 51°27.139 2°59.726 -999 -999 -999 -999 -999
2009-08-07 10:31 51°27.154 2°59.712 -999 -999 -999 -999 -999
2009-08-07 10:33 51°27.13 2°59.753 -999 -999 -999 -999 -999
2009-08-07 10:35 51°27.086 2°59.746 -999 -999 -999 -999 -999
2009-08-07 10:37 51°27.032 2°59.719 -999 -999 -999 -999 -999
2009-08-07 10:39 51°27.071 2°59.726 -999 -999 -999 -999 -999
2009-08-07 10:41 51°27.147 2°59.913 -999 -999 -999 -999 -999
2009-08-07 10:43 51°27.154 3°0.014 -999 -999 -999 -999 -999
2009-08-07 10:45 51°27.126 3°0.009 -999 -999 -999 -999 -999
2009-08-07 10:47 51°27.079 2°59.984 -999 -999 -999 -999 -999
2009-08-07 10:49 51°27.038 2°59.965 -999 -999 -999 -999 -999
2009-08-07 10:51 51°27.053 2°59.947 -999 -999 -999 -999 -999
2009-08-07 10:53 51°27.074 3°0.006 -999 -999 -999 -999 -999
2009-08-07 10:55 51°27.12 3°0.086 -999 -999 -999 -999 -999
2009-08-07 10:57 51°27.166 3°0.17 -999 -999 -999 -999 -999
2009-08-07 10:59 51°27.181 3°0.191 -999 -999 -999 -999 -999
2009-08-07 11:01 51°27.214 3°0.097 -999 -999 -999 -999 -999
2009-08-07 11:03 51°27.189 3°0.033 -999 -999 -999 -999 -999
2009-08-07 11:05 51°27.142 2°59.997 -999 -999 -999 -999 -999
2009-08-07 11:07 51°27.089 2°59.982 -999 -999 -999 -999 -999
2009-08-07 11:09 51°27.09 2°59.867 -999 -999 -999 -999 -999
2009-08-07 11:11 51°27.14 2°59.959 -999 -999 -999 -999 -999
2009-08-07 11:13 51°27.152 2°59.992 -999 -999 -999 -999 -999
2009-08-07 11:15 51°27.113 2°59.992 -999 -999 -999 -999 -999
2009-08-07 11:17 51°27.063 2°59.984 -999 -999 -999 -999 -999
2009-08-07 11:19 51°27.112 3°0.101 -999 -999 -999 -999 -999
2009-08-07 11:21 51°27.14 3°0.147 -999 -999 -999 -999 -999
2009-08-07 11:23 51°27.152 3°0.16 -999 -999 -999 -999 -999
2009-08-07 11:25 51°27.13 3°0.165 -999 -999 -999 -999 -999
2009-08-07 11:27 51°27.086 3°0.167 -999 -999 -999 -999 -999
2009-08-07 11:29 51°27.043 3°0.173 -999 -999 -999 -999 -999
2009-08-07 11:31 51°27.077 3°0.197 -999 -999 -999 -999 -999
2009-08-07 11:33 51°27.154 3°0.193 -999 -999 -999 -999 -999
2009-08-07 11:35 51°27.245 3°0.163 -999 -999 -999 -999 -999
2009-08-07 11:37 51°27.315 3°0.149 -999 -999 -999 -999 -999
2009-08-07 11:39 51°27.315 3°0.163 -999 -999 -999 -999 -999
2009-08-07 11:41 51°27.286 3°0.186 -999 -999 -999 -999 -999
2009-08-07 11:43 51°27.248 3°0.202 -999 -999 -999 -999 -999
2009-08-07 11:45 51°27.21 3°0.216 -999 -999 -999 -999 -999
2009-08-07 11:47 51°27.174 3°0.23 -999 -999 -999 -999 -999
2009-08-07 11:49 51°27.244 3°0.264 -999 -999 -999 -999 -999
2009-08-07 11:51 51°27.365 3°0.196 -999 -999 -999 -999 -999
2009-08-07 11:53 51°27.426 3°0.165 -999 -999 -999 -999 -999
2009-08-07 11:55 51°27.425 3°0.166 -999 -999 -999 -999 -999
2009-08-07 11:57 51°27.393 3°0.2 -999 -999 -999 -999 -999
2009-08-07 11:59 51°27.356 3°0.234 -999 -999 -999 -999 -999
2009-08-07 13:01 51°25.431 2°58.946 -999 -999 -999 -999 -999
2009-08-07 13:03 51°25.123 2°58.739 -999 -999 -999 -999 -999
2009-08-07 13:05 51°24.82 2°58.52 -999 -999 -999 -999 -999
2009-08-07 13:07 51°24.516 2°58.293 -999 -999 -999 -999 -999
2009-08-07 13:09 51°24.212 2°58.061 -999 -999 -999 -999 -999
2009-08-07 13:11 51°23.911 2°57.832 -999 -999 -999 -999 -999
2009-08-07 13:13 51°23.609 2°57.609 -999 -999 -999 -999 -999
2009-08-07 13:15 51°23.307 2°57.39 -999 -999 -999 -999 -999
2009-08-07 13:17 51°23.003 2°57.168 -999 -999 -999 -999 -999
2009-08-07 13:19 51°22.698 2°56.953 -999 -999 -999 -999 -999
2009-08-07 13:21 51°22.396 2°56.737 -999 -999 -999 -999 -999
2009-08-07 13:23 51°22.094 2°56.518 -999 -999 -999 -999 -999
2009-08-07 13:25 51°21.794 2°56.285 -999 -999 -999 -999 -999
2009-08-07 13:27 51°21.498 2°56.054 -999 -999 -999 -999 -999
2009-08-07 13:29 51°21.2 2°55.824 -999 -999 -999 -999 -999
2009-08-07 13:31 51°20.904 2°55.594 -999 -999 -999 -999 -999
2009-08-07 13:33 51°20.606 2°55.366 -999 -999 -999 -999 -999
2009-08-07 13:35 51°20.311 2°55.137 -999 -999 -999 -999 -999
2009-08-07 13:37 51°20.019 2°54.909 -999 -999 -999 -999 -999
2009-08-07 13:39 51°19.729 2°54.669 -999 -999 -999 -999 -999
2009-08-07 13:41 51°19.432 2°54.431 -999 -999 -999 -999 -999
2009-08-07 13:43 51°19.137 2°54.191 -999 -999 -999 -999 -999
2009-08-07 13:45 51°18.84 2°53.951 -999 -999 -999 -999 -999
2009-08-07 13:47 51°18.545 2°53.705 -999 -999 -999 -999 -999
2009-08-07 13:49 51°18.251 2°53.461 -999 -999 -999 -999 -999
2009-08-07 13:51 51°17.931 2°53.318 -999 -999 -999 -999 -999
2009-08-07 13:53 51°17.591 2°53.289 -999 -999 -999 -999 -999
2009-08-07 13:55 51°17.253 2°53.245 -999 -999 -999 -999 -999
2009-08-07 13:57 51°16.912 2°53.274 -999 -999 -999 -999 -999
2009-08-07 13:59 51°16.566 2°53.441 -999 -999 -999 -999 -999
2009-08-07 14:01 51°16.22 2°53.593 -999 -999 -999 -999 -999
2009-08-07 14:03 51°15.874 2°53.744 -999 -999 -999 -999 -999
2009-08-07 14:05 51°15.527 2°53.906 -999 -999 -999 -999 -999
2009-08-07 14:07 51°15.182 2°54.092 -999 -999 -999 -999 -999
2009-08-07 14:09 51°14.875 2°54.269 -999 -999 -999 -999 -999
2009-08-07 14:11 51°14.643 2°54.414 -999 -999 -999 -999 -999
2009-08-07 14:13 51°14.5 2°54.522 -999 -999 -999 -999 -999
2009-08-07 14:15 51°14.415 2°54.691 -999 -999 -999 -999 -999
2009-08-07 14:17 51°14.316 2°55.126 -999 -999 -999 -999 -999
2009-08-07 14:19 51°14.114 2°55.414 -999 -999 -999 -999 -999
2009-08-07 14:21 51°13.905 2°55.569 -999 -999 -999 -999 -999
2009-08-07 14:23 51°13.77 2°55.71 -999 -999 -999 -999 -999
2009-08-07 14:25 51°13.701 2°55.839 -999 -999 -999 -999 -999
2009-08-07 14:27 51°13.674 2°55.928 -999 -999 -999 -999 -999
2009-08-07 14:29 51°13.662 2°55.96 -999 -999 -999 -999 -999